Probability
0 0 0 0 0 0 0 0 0 0 0 0 0 0 0 0 0 0 0 0 0 0 0 0 0 0 0 0 0 0 0 0 0 0 0 0 0 0 0 0 0 0 0 0
0 0 0 0 0 0 0 0 0 0 0 0 0 0 0 0 0 0 0 0 0 0 0 0 0 0 0 0 0 0 0 0 0 0 0 0 0 0 0 0 0 0 0 0
0 0 0 0 0 0 0 0 0 0 0 0 0 0 0 0 0 0 0 0 0 0 0 0 0 0 0 0 0 0 0 0 0 0 0 0 0 0 0 0 0 0 0 0
0 0 0 0 0 0 0 0 0 0 0 0 0 0 0 0 0 0 0 0 0 0 0 0 0 0 0 0 0 0 0 0 0 0 0 0 0 0 0 0 0 0 0 0
0 0 0 0 0 0 0 0 0 0 0 0 0 0 0 0 0 0 0 0 0 0 0 0 0 0 0 0 0 0 0 0 0 0 0 0 0 0 0 0 0 0 0 0
0 0 0 0 0 0 0 0 0 0 0 0 0 0 0 0 0 0 0 0 0 0 0 0 0 0 0 0 0 0 0 0 0 0 0 0 0 0 0 0 0 0 0 0
0 0 0 0 0 0 0 0 0 0 0 0 0 0 0 0 0 0 0 0 0 0 0 0 0 0 0 0 0 0 0 0 0 0 0 0 0 0 0 0 0 0 0 0
0 0 0 0 0 0 0 0 0 0 0 0 0 0 0 0 0 0 0 0 0 0 0 0 0 0 0 0 0 0 0 0 0 0 0 0 0 0 0 0 0 0 0 0
0 0 0 0 0 0 0 0 0 0 0 0 0 0 0 0 0 0 0 0 0 0 0 0 0 0 0 0 0 0 0 0 0 0 0 0 0 0 0 0 0 0 0 0
0 0 0 0 0 0 0 0 0 0 0 0 0 0 0 0 0 0 0 0 0 0 0 0 0 0 0 0 0 0 0 0 0 0 0 0 0 0 0 0 0 0 0 0
0 0 0 0 0 0 0 0 0 0 0 0 0 0 0 0 0 0 0 0 0 0 0 0 0 0 0 0 0 0 0 0 0 0 0 0 0 0 0 0 0 0 0 0
0 0 0 0 0 0 0 0 0 0 0 0 0 0 0 0 0 0 0 0 0 0 0 0 0 0 0 0 0 0 0 0 0 0 0 0 0 0 0 0 0 0 0 0
0 0 0 0 0 0 0 0 0 0 0 0 0 0 0 0 0 0 0 0 0 0 0 0 0 0 0 0 0 0 0 0 0 0 0 0 0 0 0 0 0 0 0 0
0 0 0 0 0 0 0 0 0 0 0 0 0 0 0 0 0 0 0 0 0 0 0 0 0 0 0 0 0 0 0 0 0 0 0 0 0 0 0 0 0 0 0 0
0 0 0 0 0 0 0 0 0 0 0 0 0 0 0 0 0 0 0 0 0 0 0 0 0 0 0 0 0 0 0 0 0 0 0 0 0 0 0 0 0 0 0 0
0 0 0 0 0 0 0 0 0 0 0 0 0 0 0 0 0 0 0 0 0 0 0 0 0 0 0 0 0 0 0 0 0 0 0 0 0 0 0 0 0 0 0 0
0 0 0 0 0 0 0 0 0 0 0 0 0 0 0 0 0 0 0 0 0 0 0 0 0 0 0 0 0 0 0 0 0 0 0 0 0 0 0 0 0 0 0 0
0 0 0 0 0 0 0 0 0 0 0 0 0 0 0 0 0 0 0 0 0 0 0 0 0 0 0 0 0 0 0 0 0 0 0 0 0 0 0 0 0 0 0 0
0 0 0 0 0 0 0 0 0 0 0 0 0 0 0 0 0 0 0 0 0 0 0 0 0 0 0 0 0 0 0 0 0 0 0 0 0 0 0 0 0 0 0 0
0 0 0 0 0 0 0 0 0 0 0 0 0 0 0 0 0 0 0 0 0 0 0 0 0 0 0 0 0 0 0 0 0 0 0 0 0 0 0 0 0 0 0 0
0 0 0 0 0 0 0 0 0 0 0 0 0 0 0 0 0 0 0 0 0 0 0 0 0 0 0 0 0 0 0 0 0 0 0 0 0 0 0 0 0 0 0 0
0 0 0 0 0 0 0 0 0 0 0 0 0 0 0 0 0 0 0 0 0 0 0 0 0 0 0 0 0 0 0 0 0 0 0 0 0 0 0 0 0 0 0 0
0 0 0 0 0 0 0 0 0 0 0 0 0 0 0 0 0 0 0 0 0 0 0 0 0 0 0 0 0 0 0 0 0 0 0 0 0 0 0 0 0 0 0 0
0 0 0 0 0 0 0 0 0 0 0 0 0 0 0 0 0 0 0 0 0 0 0 0 0 0 0 0 0 0 0 0 0 0 0 0 0 0 0 0 0 0 0 0
0 0 0 0 0 0 0 0 0 0 0 0 0 0 0 0 0 0 0 0 0 0 0 0 0 0 0 0 0 0 0 0 0 0 0 0 0 0 0 0 0 0 0 0
0 0 0 0 0 0 0 0 0 0 0 0 0 0 0 0 0 0 0 0 0 0 0 0 0 0 0 0 0 0 0 0 0 0 0 0 0 0 0 0 0 0 0 0
0 0 0 0 0 0 0 0 0 0 0 0 0 0 0 0 0 0 0 0 0 0 0 0 0 0 0 0 0 0 0 0 0 0 0 0 0 0 0 0 0 0 0 0
Wind_Speed
9 8 7 8 9 8 9 9 9 9 9 7 4 3 2 1 1 1 1 1 1 1 1 1 1 0 1 1 1 1 1 1 1 1 1 0 1 1 1 1 2 2 2 2
8 9 9 12 11 11 12 12 12 12 11 6 4 3 3 2 1 1 2 2 2 1 1 1 2 1 1 0 1 1 1 1 1 1 1 1 1 1 1 2 2 2 2 2
6 5 7 10 10 12 9 8 8 10 7 4 4 3 3 2 2 2 2 2 1 1 2 2 1 2 1 1 0 1 1 1 1 1 1 1 1 1 2 2 2 2 2 2
4 3 10 6 1 3 5 4 4 3 3 3 3 4 3 2 2 2 2 2 2 2 2 1 1 1 1 1 1 1 1 2 1 1 1 2 2 2 2 2 2 2 3 3
3 6 10 5 3 2 3 3 2 3 4 4 4 4 3 3 3 2 3 2 2 1 1 1 1 1 1 1 1 2 2 2 2 2 2 2 2 3 2 2 3 3 3 3
5 6 7 2 1 1 1 3 0 1 2 3 3 3 3 5 5 4 3 2 2 2 1 1 1 1 1 2 2 3 3 3 3 2 2 3 3 3 3 3 3 3 4 4
8 8 7 2 0 1 3 3 1 1 2 2 2 3 4 4 4 3 2 2 2 1 1 2 2 1 2 2 3 3 3 3 3 3 3 3 3 3 3 3 3 4 4 4
6 8 7 0 1 1 2 1 2 3 3 3 3 3 4 3 4 3 2 2 2 2 2 2 2 2 3 3 3 2 2 3 3 3 3 3 3 3 3 4 4 4 4 5
5 5 2 0 1 1 2 2 3 3 4 4 5 5 4 4 4 4 3 3 2 2 2 2 2 2 3 4 2 2 2 3 4 4 4 4 4 4 4 4 4 4 4 4
5 4 4 4 3 2 2 3 3 3 4 5 6 6 5 5 4 4 4 3 2 2 3 3 3 2 3 3 3 3 3 4 4 4 4 4 4 4 4 4 4 4 4 4
8 7 6 4 3 3 4 4 4 5 5 6 6 7 6 5 4 4 3 3 2 2 3 4 3 4 3 3 3 3 4 4 4 4 4 4 4 4 5 5 6 6 5 5
6 4 5 6 5 5 5 6 6 6 7 6 5 6 5 5 4 4 4 3 3 3 4 4 4 4 4 3 3 4 4 4 3 3 3 3 4 5 7 8 9 11 11 9
6 6 6 6 5 5 5 5 5 5 5 5 4 4 4 4 4 4 4 4 4 4 4 4 5 5 4 4 4 4 5 4 3 3 3 4 4 4 5 6 8 11 12 13
4 4 5 5 5 5 5 5 4 4 4 4 3 3 3 3 3 4 4 4 4 4 5 5 5 5 5 4 4 5 5 5 5 4 4 4 4 4 4 5 5 5 7 11
3 3 4 4 4 5 4 4 4 4 4 3 3 3 3 3 4 5 4 4 4 4 5 5 5 6 5 4 4 5 5 4 4 4 4 4 4 5 5 6 6 6 5 6
3 3 4 4 5 4 4 4 4 4 4 4 4 3 3 4 4 4 4 4 4 5 6 5 6 6 4 4 5 5 4 7 7 4 4 4 4 5 5 6 6 6 6 6
3 4 5 5 5 5 4 4 4 4 4 4 4 4 4 4 4 5 5 5 5 6 6 6 6 6 5 5 5 4 4 5 8 6 5 5 5 6 6 6 6 7 7 7
4 4 5 5 4 5 5 4 4 4 4 4 4 4 4 5 6 6 6 5 5 6 6 6 6 6 5 5 5 4 4 4 4 5 5 5 6 6 6 6 7 8 7 7
3 4 4 4 4 4 4 4 5 5 5 4 4 5 6 6 6 6 5 5 6 8 7 5 7 6 6 6 6 4 4 5 5 5 5 8 8 6 6 6 7 7 7 6
4 4 4 5 5 4 5 5 5 5 5 5 5 6 6 6 6 6 6 6 6 6 6 6 5 5 5 6 6 4 5 5 6 6 6 6 6 7 7 7 7 7 7 6
5 5 5 5 6 6 6 6 5 6 6 5 5 7 7 7 6 5 6 7 7 6 6 8 5 5 5 5 7 4 5 5 6 6 6 6 6 7 7 7 7 7 6 6
5 5 6 6 6 7 6 5 5 6 6 6 6 6 7 7 7 6 7 7 7 8 5 4 4 6 7 8 5 5 5 6 6 6 6 6 6 7 7 6 6 6 6 6
5 6 6 6 7 7 7 6 6 6 7 7 7 7 7 7 5 6 7 5 4 7 6 5 7 11 12 7 5 5 6 7 7 6 6 6 6 7 7 7 6 6 6 6
6 6 7 6 6 6 7 8 6 6 7 7 7 7 6 6 6 5 6 8 9 10 6 8 12 13 12 5 5 5 6 6 6 6 6 6 6 6 6 6 6 6 6 7
7 7 7 6 6 6 7 7 6 6 6 6 6 6 5 5 6 6 5 6 9 9 6 8 12 12 7 5 5 5 6 6 6 6 6 6 6 6 6 6 6 6 6 6
6 6 6 6 6 6 5 4 5 5 5 5 5 4 4 4 5 5 5 6 7 9 7 5 6 7 5 5 5 6 5 6 7 6 6 6 6 6 6 6 7 6 5 5
6 5 5 5 5 5 4 4 5 5 5 5 6 5 5 4 4 5 6 5 5 5 5 5 4 4 4 4 5 5 5 5 5 5 5 6 6 6 6 6 5 5 4 5
Wind_Direction
267 278 274 261 250 234 228 226 234 256 269 284 302 314 310 311 310 306 291 284 268 259 230 191 188 218 172 153 144 154 161 168 196 209 233 213 194 229 235 224 224 217 210 218
274 265 263 265 254 242 239 239 247 265 273 286 306 334 338 335 324 297 284 279 277 265 255 233 200 205 216 200 163 150 183 224 229 216 224 235 236 246 257 249 236 224 217 219
269 272 288 260 236 229 229 227 235 247 260 298 322 326 322 324 330 304 287 278 264 281 270 265 227 190 203 227 185 177 210 244 250 237 238 241 245 249 255 256 251 240 229 224
268 273 243 243 253 208 216 237 230 241 290 315 308 313 313 304 302 305 305 305 290 275 275 283 277 200 184 188 195 216 237 244 249 242 250 255 253 249 257 257 249 250 246 236
233 246 266 263 240 194 205 251 243 245 284 307 316 316 317 345 340 309 305 314 311 304 302 300 288 254 211 215 221 230 242 246 248 239 242 250 254 250 249 251 252 249 246 239
229 242 254 262 345 356 122 252 316 281 300 324 344 314 304 345 346 335 328 324 330 337 341 319 291 273 243 240 234 240 245 247 244 239 239 241 243 246 247 244 247 247 247 240
234 247 261 271 272 88 194 234 330 339 317 310 291 270 293 325 330 330 330 326 323 312 291 276 280 277 257 252 248 247 249 250 246 241 241 244 247 245 242 244 248 250 252 249
218 237 247 31 68 195 253 324 345 340 330 313 299 298 303 310 308 305 302 295 297 287 278 269 259 260 262 258 254 250 248 252 253 249 247 248 247 250 244 240 241 247 252 257
216 230 269 309 243 275 311 314 318 319 319 312 299 294 291 291 289 284 278 274 277 277 280 279 268 251 265 271 266 258 255 254 254 253 248 242 239 244 247 242 241 244 243 252
283 272 294 291 291 306 304 297 301 301 302 298 290 289 286 280 279 283 287 281 276 275 274 277 276 261 255 264 260 247 251 255 251 248 251 247 242 237 236 238 239 243 244 248
275 283 293 284 300 314 317 311 302 296 289 281 280 281 280 277 275 276 283 281 273 268 270 275 279 271 264 262 258 254 253 257 258 251 251 253 250 242 241 240 234 237 240 239
265 285 285 289 290 295 296 294 288 283 283 276 266 269 272 272 273 272 272 273 273 271 272 276 277 273 268 261 254 254 257 256 253 252 252 252 258 268 256 252 257 253 252 250
278 291 286 291 298 301 295 297 292 286 282 283 278 273 273 274 276 272 270 266 264 265 265 270 274 273 269 261 257 253 254 258 257 255 253 254 254 259 274 275 264 261 260 261
289 301 294 294 298 301 294 292 293 293 290 283 279 274 274 280 283 279 276 272 267 267 269 270 272 273 271 263 257 255 254 257 257 254 252 252 252 253 256 267 278 274 265 265
287 291 283 294 303 304 300 297 298 293 290 291 279 268 268 273 275 276 277 278 278 276 273 271 271 274 274 267 262 260 259 257 253 251 249 248 248 250 255 261 266 271 275 273
281 282 282 283 285 287 289 283 278 279 281 282 280 270 265 264 269 276 279 277 275 275 276 274 272 273 271 266 264 262 258 259 259 258 255 255 252 250 253 256 261 262 264 265
257 265 268 275 277 279 279 275 272 272 273 272 273 276 275 274 275 274 275 272 266 267 269 268 271 275 271 264 260 257 255 258 259 259 253 252 253 252 253 256 260 263 263 264
246 255 263 269 275 278 280 278 277 275 269 266 269 270 268 262 263 268 272 276 280 278 271 264 267 273 272 269 264 259 255 256 253 252 255 256 258 254 253 255 258 262 266 268
261 264 268 269 267 266 270 273 273 273 272 269 267 266 265 265 264 267 271 274 274 277 275 265 267 270 270 266 267 259 255 256 258 257 256 263 266 258 255 256 258 259 261 261
280 278 277 277 278 273 273 273 272 272 269 265 266 269 271 270 268 268 270 268 263 263 268 271 272 270 269 267 266 260 256 256 258 260 258 256 257 259 256 256 257 258 259 258
284 280 277 275 275 271 266 265 266 268 269 264 262 266 270 273 272 269 271 276 273 264 266 271 270 267 268 271 272 262 259 261 261 260 260 260 261 261 260 258 258 258 258 260
281 279 277 275 273 274 271 265 261 265 271 270 268 269 273 277 277 274 265 264 272 275 273 267 266 269 274 278 270 264 263 264 264 262 261 261 262 264 263 260 260 261 258 257
278 276 276 274 272 274 277 272 266 265 266 266 266 267 268 268 267 270 278 275 273 279 279 268 270 275 279 278 267 265 266 267 266 264 262 260 261 262 262 262 261 259 258 258
281 280 277 277 277 277 276 276 271 267 264 264 263 262 265 272 273 262 263 279 282 282 277 274 278 281 284 274 266 266 266 266 267 267 267 266 265 263 262 262 263 262 261 259
280 279 278 277 274 271 271 274 277 274 271 271 270 267 261 254 262 273 272 272 278 283 280 281 283 284 281 269 266 267 267 266 269 273 270 269 269 268 265 263 263 264 264 261
274 275 274 270 268 272 274 275 276 278 281 283 281 276 272 268 266 269 271 272 272 280 280 278 278 279 272 268 268 269 269 276 280 278 274 273 272 271 270 269 266 264 264 261
279 278 280 281 278 276 276 276 276 279 279 280 284 284 280 278 276 276 275 275 277 277 277 276 274 272 271 271 272 273 274 275 275 274 275 275 273 272 273 271 270 268 268 267